This demonstration page uses our WeatherBlox Daily Observations layout. Learn more.

Left ArrowRight Arrow

31.31129, -92.44514

Hourly Observations for December 10, 2021

Temp ( °F °C ) Dew Point ( °F °C ) Humidity (%) Winds ( mph kmh ) Pressure ( in mb ) Visibility ( mi km ) Precip ( " mm )
12:53 am 00:53 Cloudy 75 23.9 69 20.6 82 82 S 9 15 29.89 1012 10 16 0.00 0.00
1:53 am 01:53 Cloudy 74 23.3 69 20.6 85 85 S 8 13 29.89 1012 10 16 0.00 0.00
2:15 am 02:15 Cloudy 74 23.3 69 20.6 85 85 S 8 13 29.88 1012 10 16 0.00 0.00
2:53 am 02:53 Cloudy 74 23.3 69 20.6 85 85 S 6 9 29.89 1012 10 16 0.00 0.00
3:31 am 03:31 Cloudy 73 22.8 69 20.6 87 87 S 7 11 29.87 1011 10 16 0.00 0.00
3:53 am 03:53 Cloudy 73 22.8 70 21.1 90 90 S 7 11 29.87 1012 10 16 0.00 0.00
4:03 am 04:03 Cloudy 73 22.8 69 20.6 87 87 S 5 7 29.86 1011 10 16 0.00 0.00
4:27 am 04:27 Mostly Cloudy 72 22.2 69 20.6 91 91 S 8 13 29.86 1011 9 14 0.00 0.00
4:40 am 04:40 Mostly Cloudy 72 22.2 69 20.6 91 91 S 6 9 29.86 1011 9 14 0.00 0.00
4:53 am 04:53 Partly Cloudy 72 22.2 69 20.6 91 91 S 7 11 29.86 1011 9 14 0.00 0.00
5:33 am 05:33 Mostly Cloudy 71 21.7 69 20.6 94 94 SSE 6 9 29.86 1011 7 11 0.00 0.00
5:53 am 05:53 Mostly Cloudy with Mist and Fog 70 21.1 68 20 93 93 SSE 6 9 29.87 1012 6 10 0.00 0.00
6:08 am 06:08 Mostly Cloudy with Mist and Fog 71 21.7 69 20.6 94 94 SE 7 11 29.87 1011 6 10 0.00 0.00
6:53 am 06:53 Cloudy with Mist and Fog 72 22.2 70 21.1 94 94 SSE 5 7 29.89 1012 6 10 0.00 0.00
7:02 am 07:02 Cloudy 72 22.2 70 21.1 94 94 S 7 11 29.88 1012 7 11 0.00 0.00
7:53 am 07:53 Cloudy 75 23.9 71 21.7 88 88 S 8 13 29.88 1012 7 11 0.00 0.00
8:53 am 08:53 Cloudy 77 25 71 21.7 82 82 SSW 14 22 29.88 1012 9 14 0.00 0.00
9:53 am 09:53 Cloudy 78 25.6 70 21.1 76 76 SSW 18 30 29.90 1013 10 16 0.00 0.00
10:53 am 10:53 Cloudy 79 26.1 70 21.1 74 74 S 17 28 29.88 1012 10 16 0.00 0.00
11:03 am 11:03 Cloudy 80 26.7 70 21.1 71 71 S 15 24 29.86 1011 10 16 0.00 0.00
11:53 am 11:53 Cloudy 80 26.7 69 20.6 69 69 SSW 16 26 29.84 1011 10 16 0.00 0.00
12:24 pm 12:24 Cloudy 80 26.7 70 21.1 71 71 S 12 19 29.82 1010 10 16 0.00 0.00
12:35 pm 12:35 Mostly Cloudy 81 27.2 70 21.1 69 69 SSW 18 30 29.81 1009 10 16 0.00 0.00
12:53 pm 12:53 Mostly Cloudy 80 26.7 69 20.6 69 69 SSW 18 30 29.81 1010 10 16 0.00 0.00
1:53 pm 13:53 Cloudy 81 27.2 69 20.6 67 67 SSW 22 35 29.79 1009 10 16 0.00 0.00
2:53 pm 14:53 Cloudy 80 26.7 68 20 67 67 SSW 21 33 29.79 1009 10 16 0.00 0.00
3:53 pm 15:53 Cloudy 79 26.1 68 20 69 69 SSW 18 30 29.80 1009 10 16 0.00 0.00
4:53 pm 16:53 Cloudy 78 25.6 68 20 71 71 S 13 20 29.79 1009 10 16 0.00 0.00
5:53 pm 17:53 Cloudy 77 25 69 20.6 77 77 SSW 13 20 29.81 1010 10 16 0.00 0.00
6:53 pm 18:53 Mostly Cloudy 77 25 69 20.6 77 77 S 14 22 29.83 1010 10 16 0.00 0.00
7:28 pm 19:28 Cloudy 77 25 70 21.1 79 79 SSW 10 17 29.83 1010 10 16 0.00 0.00
7:53 pm 19:53 Cloudy 76 24.4 70 21.1 82 82 S 10 17 29.84 1011 10 16 0.00 0.00
8:46 pm 20:46 Mostly Cloudy 76 24.4 70 21.1 82 82 S 12 19 29.83 1010 10 16 0.00 0.00
8:53 pm 20:53 Mostly Cloudy 76 24.4 70 21.1 82 82 S 14 22 29.83 1010 10 16 0.00 0.00
9:53 pm 21:53 Cloudy 76 24.4 70 21.1 82 82 SSW 13 20 29.85 1011 10 16 0.00 0.00
10:02 pm 22:02 Cloudy 76 24.4 70 21.1 82 82 SSW 14 22 29.84 1010 10 16 0.00 0.00
10:33 pm 22:33 Cloudy 77 25 70 21.1 79 79 S 20 31 29.84 1010 10 16 0.00 0.00
10:53 pm 22:53 Cloudy 76 24.4 70 21.1 82 82 SSW 15 24 29.85 1011 10 16 0.00 0.00
11:38 pm 23:38 Mostly Cloudy 76 24.4 69 20.6 79 79 SSW 16 26 29.83 1010 10 16 0.00 0.00
11:53 pm 23:53 Mostly Cloudy 76 24.4 69 20.6 79 79 S 15 24 29.84 1011 10 16 0.00 0.00

Powered by AerisWeather